Location: ?????
(55.6500°N, 37.2500°E)
Time: 03:09:21
(UTC+00:00)

CENTAUR R/B - Pass Details

Date: 19 May 2025
Orbit: 645 x 1537 km, 63.4° (Epoch: 15 June)

Event Time Altitude Azimuth Distance (km) Brightness Sun altitude
Rises 23:15:34 0° 310° (NW) 4,221 6.0 -11.0°
Reaches altitude 10° 23:18:51 10° 298° (WNW) 3,378 5.3 -10.8°
Maximum altitude 23:25:09 24° 249° (WSW) 2,634 4.3 -10.4°
Enters shadow 23:31:27 12° 204° (SSW) 3,554 4.7 -9.9°
